{"data":{"norad_id":52604,"intl_designator":"2022-052G","name":"STARLINK-4013","alt_names":[],"object_type":"PAYLOAD","status":"ACTIVE","operator":null,"country":"US","launch_date":"2022-05-14","launch_site_code":"AFETR","launch_vehicle":null,"mission":null,"orbit_class":"UNKNOWN","rcs_meters":null,"size_class":null,"mass_kg":null,"dimensions":null,"purposes":["comms"],"wikipedia_slug":null,"has_3d_model":false,"image_url":null,"decayed_at":null,"tle_current":{"epoch":"2026-09-20T03:15:24.130944Z","epoch_age_seconds":94647,"freshness":"FRESH","line1":"1 52604U 22052G   26263.13569596  .00000057  00000+0  12533-4 0  9990","line2":"2 52604  53.1614 117.1364 0001189  90.8051 269.3088 15.35399358240333","mean_motion":15.35399358,"eccentricity":0.0001189,"inclination_deg":53.1614,"raan_deg":117.1364,"arg_perigee_deg":90.8051,"mean_anomaly_deg":269.3088,"bstar":1.2533e-5,"rev_number":24033,"period_min":93.786674619672,"perigee_km":458.92152590305,"apogee_km":460.54757175736,"semimajor_km":6837.8715488302,"source":"CELESTRAK","updated_at":"2026-09-20T09:00:40.068617Z"}}}